Voltar ao catálogo

STARLINK-6277

AtivoComunicaçõesVLEO
NORAD 56399·PAYLOAD·🇺🇸 United States

Lançado May 4, 2023 de Cape Canaveral Space Force Station

Loading…

Próximas Passagens (próximas 24 horas)

TLE

AtualizadoSource: CelesTrak SupGP

Época: Sep 14, 2026, 21:33 UTC

1 56399C 23061AB  26257.89840278 -.00005213  00000+0 -18875-3 0  2573
2 56399  43.0028 198.2685 0001454 259.6205 124.1536 15.27589557    10

Acompanhe STARLINK-6277 em tempo real com AllMySat

Download on the App Store